Regional Weather Roundup
Issued by NWS

Home | Current Version | Previous Version | Graphics & Text | Print | Product List | Glossary On
Versions: 1 2 3 4 5 6 7 8 9 10 11 12 13 14 15 16 17 18 19 20 21 22 23 24 25 26 27 28 29 30 31 32 33 34 35 36 37 38 39 40 41 42 43 44 45 46 47 48 49 50
000
ASUS43 KMKX 271221
RWRWI

WISCONSIN REGIONAL WEATHER ROUNDUP
NATIONAL WEATHER SERVICE MILWAUKEE/SULLIVAN WI
600 AM CST SAT DEC 27 2014

NOTE: "FAIR" INDICATES FEW OR NO CLOUDS BELOW 12,000 FEET WITH NO
SIGNIFICANT WEATHER AND/OR OBSTRUCTIONS TO VISIBILITY.

WIZ001-002-006>008-014>016-023>028-271300-
NORTHWEST WISCONSIN

CITY           SKY/WX    TMP DP  RH WIND       PRES   REMARKS
SUPERIOR ARPT  CLOUDY    24  18  80 N9        30.04R WCI  14
6HR MIN TEMP:  24; 6HR MAX TEMP:  28;

ASHLAND        LGT SNOW  27  26  96 NW6       30.01R FOG     WCI  20
6HR MIN TEMP:  26; 6HR MAX TEMP:  29; 6HR PCP:  0.05;

HAYWARD        LGT SNOW  26  23  88 N10       29.95F VSB 3/4 WCI  16
6HR MIN TEMP:  26; 6HR MAX TEMP:  28; 6HR PCP:  0.05;

SIREN          LGT SNOW  24  22  93 N8        30.01S WCI  15
6HR MIN TEMP:  24; 6HR MAX TEMP:  27;

CUMBERLAND     SNOW      25  23  93 N13G18    29.95R VSB 1/2 WCI  13
RICE LAKE      LGT SNOW  27  25  91 N9        29.95R VSB 3/4 WCI  18
6HR MIN TEMP:  27; 6HR MAX TEMP:  29; 6HR PCP:  0.01;

CHETEK         LGT SNOW  28  26  96 NW8       29.93R WCI  19
6HR MIN TEMP:  28; 6HR MAX TEMP:  29; 6HR PCP:  0.08;

LADYSMITH      LGT SNOW  29  28  94 N12G18    29.90F VSB 1   WCI  19
6HR MIN TEMP:  29; 6HR MAX TEMP:  30; 6HR PCP:  0.01;

EAU CLAIRE     LGT SNOW  29  26  89 N8        29.91R VSB 1   WCI  21
6HR MIN TEMP:  29; 6HR MAX TEMP:  30; 6HR PCP:  0.22;

MENOMONIE      SNOW      29  28  94 NW9       29.94R VSB 1/2 WCI  21
6HR MIN TEMP:  29; 6HR MAX TEMP:  31; 6HR PCP:  0.03;

NEW RICHMOND   LGT SNOW  25  25  99 NW12      29.99R VSB 3/4 WCI  14
6HR MIN TEMP:  25; 6HR MAX TEMP:  28;

OSCEOLA        LGT SNOW  25  25 100 NW9G16    30.04R WCI  15
6HR MIN TEMP:  25; 6HR MAX TEMP:  28;

$$

WIZ003>005-009-010-017-018-271300-
NORTH CENTRAL WISCONSIN

CITY           SKY/WX    TMP DP  RH WIND       PRES   REMARKS
MANITOWISH WTR LGT SNOW  27  27 100 N3        29.90R
6HR MIN TEMP:  27; 6HR MAX TEMP:  28; 6HR PCP:  0.05;

ARBOR VITAE    LGT SNOW  32  30  92 N6        29.88S WCI  26
6HR MIN TEMP:  32; 6HR MAX TEMP:  32; 6HR PCP:  0.01;

WOODRUFF       LGT SNOW  32  30  92 N6        29.88S WCI  26
6HR MIN TEMP:  32; 6HR MAX TEMP:  32; 6HR PCP:  0.01;

RHINELANDER    LGT SNOW  28  27  96 NE7       29.85F VSB 3/4 WCI  21
6HR MIN TEMP:  28; 6HR MAX TEMP:  29; 6HR PCP:  0.26;

EAGLE RIVER    LGT SNOW  28  28 100 NE5       29.87F WCI  23
6HR MIN TEMP:  28; 6HR MAX TEMP:  29;

LAND O LAKES   LGT SNOW  29  28  95 NE6       29.89F WCI  23
6HR MIN TEMP:  29; 6HR MAX TEMP:  30;

PHILLIPS       LGT SNOW  28  26  96 N7        29.89R WCI  20
6HR MIN TEMP:  27; 6HR MAX TEMP:  28; 6HR PCP:  0.06;

TOMAHAWK       LGT SNOW  29  28  95 CALM      29.86F VSB 1
6HR MIN TEMP:  29; 6HR MAX TEMP:  30; 6HR PCP:  0.31;

MEDFORD        MIX PCPN  29  28  96 NE6       29.83S WCI  23
6HR MIN TEMP:  29; 6HR MAX TEMP:  30; 6HR PCP:  0.13;

MERRILL        LGT SNOW  31  31 100 NE3       29.84F
6HR MIN TEMP:  31; 6HR MAX TEMP:  31; 6HR PCP:  0.07;

$$

WIZ029-030-035-036-043>047-271300-
CENTRAL WISCONSIN

CITY           SKY/WX    TMP DP  RH WIND       PRES   REMARKS
WAUSAU         LGT SNOW  32  31  96 E3        29.82F FOG
6HR MIN TEMP:  32; 6HR MAX TEMP:  33; 6HR PCP:  0.11;

MOSINEE        LGT SNOW  32  32 100 E7        29.83F VSB 1   WCI  26
MARSHFIELD     LGT SNOW  33  32  96 CALM      29.84R VSB 3/4
6HR MIN TEMP:  33; 6HR MAX TEMP:  33; 6HR PCP:  0.04;

STEVENS POINT  MIX PCPN  31  31 100 E6        29.83F WCI  25
6HR MIN TEMP:  31; 6HR MAX TEMP:  31; 6HR PCP:  0.01;

WAUPACA        RAIN      35  34  96 CALM      29.86F
6HR MIN TEMP:  35; 6HR MAX TEMP:  35; 6HR PCP:  0.01;

WAUTOMA        LGT RAIN  34  34 100 E5        29.84F FOG     WCI  30
6HR MIN TEMP:  33; 6HR MAX TEMP:  34; 6HR PCP:  0.04;

WISC RAPIDS    LGT RAIN  33  31  92 CALM      29.86S FOG
6HR MIN TEMP:  33; 6HR MAX TEMP:  33; 6HR PCP:  0.05;

CAMP DOUGLAS   LGT RAIN  32  32 100 CALM      29.85S FOG
                                      6HR PCP:  0.07;

$$

WIZ011>013-019>022-031-037>040-048>050-271300-
NORTHEAST WISCONSIN

CITY           SKY/WX    TMP DP  RH WIND       PRES   REMARKS
ANTIGO         LGT SNOW  31  31  99 E8        29.83F WCI  23
6HR MIN TEMP:  31; 6HR MAX TEMP:  31; 6HR PCP:  0.03;

SHAWANO        RAIN      34  33  96 NE5       29.88F VSB 1/4 WCI  30
6HR MIN TEMP:  34; 6HR MAX TEMP:  34; 6HR PCP:  0.01;

OCONTO         CLOUDY    34  34 100 E3        29.88F VSB 1/2
6HR MIN TEMP:  33; 6HR MAX TEMP:  34;

STURGEON BAY   CLOUDY    37  36  93 E5        29.88F VSB 1/4 WCI  34
6HR MIN TEMP:  36; 6HR MAX TEMP:  37;

GREEN BAY      LGT RAIN  34  34 100 NE7       29.86F VSB 1/4 WCI  28
6HR MIN TEMP:  34; 6HR MAX TEMP:  35; 6HR PCP:  0.01;

MANITOWOC      LGT RAIN  37  37 100 CALM      29.86F VSB 3/4
6HR MIN TEMP:  36; 6HR MAX TEMP:  37; 6HR PCP: TRACE;

APPLETON       FOG       34  34 100 E7        29.84F VSB 1/4 WCI  28
CLINTONVILLE   RAIN      32  32 100 NE3       29.86F VSB 3/4
OSHKOSH        CLOUDY    35  34  96 E5        29.84F FOG     WCI  31
6HR MIN TEMP:  31; 6HR MAX TEMP:  35; 6HR PCP:  0.02;

$$

WIZ032>034-041-042-053>061-271300-
SOUTHWEST WISCONSIN

CITY           SKY/WX    TMP DP  RH WIND       PRES   REMARKS
LA CROSSE      MIX PCPN  33  32  96 NW10      29.88R WCI  25
6HR MIN TEMP:  33; 6HR MAX TEMP:  34; 6HR PCP:  0.09;

SPARTA         RAIN      33  33 100 CALM      29.87S
6HR MIN TEMP:  33; 6HR MAX TEMP:  33; 6HR PCP:  0.13;

VIROQUA        CLOUDY    34  34 100 SW5       29.84R WCI  30
6HR MIN TEMP:  33; 6HR MAX TEMP:  34; 6HR PCP:  0.06;

BOSCOBEL       CLOUDY    35  33  92 CALM      29.87S FOG
6HR MIN TEMP:  33; 6HR MAX TEMP:  35; 6HR PCP:  0.06;

PRAIRIE DU CHI DRIZZLE   34  33  94 CALM      29.88R
6HR MIN TEMP:  33; 6HR MAX TEMP:  34; 6HR PCP:  0.08;

PLATTEVILLE    CLOUDY    41  41  97 SW12      29.87S
6HR MIN TEMP:  37; 6HR MAX TEMP:  42; 6HR PCP:  0.01;

$$

WIZ056-057-062-063-064-067-068-271300-
SOUTH CENTRAL WISCONSIN

CITY           SKY/WX    TMP DP  RH WIND       PRES   REMARKS
REEDSBURG      LGT RAIN  32  32  99 CALM      29.84S
6HR MIN TEMP:  32; 6HR MAX TEMP:  33; 6HR PCP:  0.02;

BARABOO/DELLS  MIX PCPN  33  32  97 CALM      29.83F VSB 1
6HR MIN TEMP:  32; 6HR MAX TEMP:  33;

LONE ROCK      LGT RAIN  39  34  82 N3        29.86S
6HR MIN TEMP:  35; 6HR MAX TEMP:  39; 6HR PCP:  0.05;

MINERAL POINT  LGT RAIN  43  41  93 SW12G17   29.85R
MADISON        CLOUDY    43  41  93 S8        29.84F FOG
6HR MIN TEMP:  34; 6HR MAX TEMP:  43; 6HR PCP:  0.03;

MIDDLETON      CLOUDY    45  44  98 S10       29.85S
6HR MIN TEMP:  35; 6HR MAX TEMP:  45;

WATERTOWN      DRIZZLE   43  43 100 S8        29.86F
6HR MIN TEMP:  36; 6HR MAX TEMP:  43;

MONROE         CLOUDY    45  45 100 S16G24    29.86R FOG
JANESVILLE     LGT RAIN  46  45  93 S9        29.87F
$$

WIZ051-052-058>065-066-070>072-271300-
SOUTHEAST WISCONSIN

CITY           SKY/WX    TMP DP  RH WIND       PRES   REMARKS
MILWAUKEE      CLOUDY    45  41  86 SW12      29.91S
6HR MIN TEMP:  43; 6HR MAX TEMP:  45; 6HR PCP:  0.01;

WAUKESHA       CLOUDY    43  41  93 SW7       29.90S
MILWAUKEE/TIMM CLOUDY    43  41  93 S10       29.89F
RACINE         CLOUDY    46  42  86 S13       29.93S
6HR MIN TEMP:  42; 6HR MAX TEMP:  46;

BURLINGTON     CLOUDY    44  42  94 SW13      29.91S
6HR MIN TEMP:  36; 6HR MAX TEMP:  44;

KENOSHA        CLOUDY    46  43  89 S12       29.92S
6HR MIN TEMP:  43; 6HR MAX TEMP:  46; 6HR PCP: TRACE;

FOND DU LAC    CLOUDY    37  35  92 CALM      29.85F FOG
6HR MIN TEMP:  32; 6HR MAX TEMP:  38; 6HR PCP:  0.04;

SHEBOYGAN      CLOUDY    36  35  96 CALM      29.88F FOG
6HR MIN TEMP:  32; 6HR MAX TEMP:  36; 6HR PCP: TRACE;

WEST BEND      CLOUDY    39  37  93 S3        29.87F FOG
JUNEAU         CLOUDY    42  41  99 SE12      29.86F FOG
6HR MIN TEMP:  34; 6HR MAX TEMP:  42;

$$

LSZ147-162-271300-
LAKE SUPERIOR

STATION/POSITION TIME  TEMP    WIND        PRES    WAVE
                       AIR SEA DIR/SP/G            HT/PER
                 (UTC) (F)     (DEG/KT/KT) (MB)    (FT/S)
DEVILS ISLAND    1200   28      10/ 15/ 18 1017.1S
PORT WING        1100   28     360/ 13/ 15 1016.3F
SAXON HARBOR     1100   31      30/ 13/ 17 1015.2F
$$

LMZ867-665-643>646-271300-
LAKE MICHIGAN

STATION/POSITION TIME  TEMP    WIND        PRES    WAVE


USA.gov is the U.S. government's official web portal to all federal, state and local government web resources and services.